FW8630 Weather Reports


time (UTC)temp
F
wind
direction
speed
knots
gust
knots
rain 1hr
in
rain 24hr
in
rain mn
in
humidity
%
barometer
mb
20240614131507 59 209 2.6 8.7 0.00 0.00 0.00 57 1017.6
20240614130007 60 238 1.7 6.1 0.00 0.00 0.00 54 1017.6
20240614124507 60 196 2.6 8.7 0.00 0.00 0.00 56 1017.6
20240614123006 59 188 2.6 14.8 0.00 0.00 0.00 56 1017.7
20240614121505 60 213 1.7 10.4 0.00 0.00 0.00 55 1017.5
20240614120004 60 190 2.6 7.0 0.00 0.00 0.00 52 1017.6
20240614114503 59 165 1.7 7.8 0.00 0.00 0.00 53 1017.5
20240614113003 59 250 2.6 8.7 0.00 0.00 0.00 52 1017.3
20240614111502 59 211 0.9 8.7 0.00 0.00 0.00 52 1017.4
20240614110001 59 179 2.6 8.7 0.00 0.00 0.00 53 1017.5
20240614104600 59 204 3.5 7.8 0.00 0.00 0.00 49 1017.5
20240614104501 59 210 2.6 7.0 0.00 0.00 0.00 50 1017.5
20240614103059 60 217 1.7 4.3 0.00 0.00 0.00 51 1017.5
20240614101608 60 314 0.9 4.3 0.00 0.00 0.00 53 1017.6
20240614100101 59 245 0.9 4.3 0.00 0.00 0.00 54 1017.6
20240614094606 59 215 0.9 7.8 0.00 0.00 0.00 57 1017.6
20240614093059 59 264 1.7 7.0 0.00 0.00 0.00 57 1017.5
20240614091553 59 219 0.9 4.3 0.00 0.00 0.00 56 1017.5
20240614090109 59 246 0.9 8.7 0.00 0.00 0.00 58 1017.3
20240614084549 59 227 0.9 5.2 0.00 0.00 0.00 58 1017.4
20240614083057 59 212 0.9 4.3 0.00 0.00 0.00 58 1017.3
20240614081541 59 268 1.7 5.2 0.00 0.00 0.00 58 1017.3
20240614080039 59 209 0.0 3.5 0.00 0.00 0.00 55 1017.1
20240614074544 59 205 0.9 4.3 0.00 0.00 0.00 56 1017.3
20240614073032 58 175 0.9 4.3 0.00 0.00 0.00 57 1017.2
20240614071527 57 240 0.0 3.5 0.00 0.00 0.00 59 1017.0
20240614070023 58 261 0.0 2.6 0.00 0.00 0.00 59 1017.0
20240614064520 57 278 0.0 3.5 0.00 0.00 0.00 61 1016.9
20240614063016 56 220 0.9 6.1 0.00 0.00 0.00 60 1017.0
20240614061513 56 195 0.9 4.3 0.00 0.00 0.00 60 1017.0
20240614060016 55 198 1.7 4.3 0.00 0.00 0.00 60 1017.0
20240614054508 55 207 0.9 3.5 0.00 0.00 0.00 60 1016.9
20240614053006 55 244 0.9 3.5 0.00 0.00 0.00 60 1017.0
20240614051502 55 189 0.9 2.6 0.00 0.00 0.00 61 1016.9
20240614050102 54 208 0.0 2.6 0.00 0.00 0.00 62 1016.9
20240614044557 53 199 0.0 4.3 0.00 0.00 0.00 63 1016.8
20240614043054 53 194 1.7 4.3 0.00 0.00 0.00 63 1016.8
20240614041551 52 194 0.9 4.3 0.00 0.00 0.00 64 1016.8
20240614040102 53 195 0.9 5.2 0.00 0.00 0.00 64 1016.6
20240614034601 52 266 1.7 5.2 0.00 0.00 0.00 64 1016.6
20240614033054 52 200 2.6 5.2 0.00 0.00 0.00 64 1016.6
20240614031546 51 176 0.0 1.7 0.00 0.00 0.00 65 1016.5
20240614030042 51 177 0.0 2.6 0.00 0.00 0.00 65 1016.5
20240614024539 51 186 0.0 1.7 0.00 0.00 0.00 64 1016.6
20240614023045 52 198 0.9 3.5 0.00 0.00 0.00 64 1016.5
20240614014518 52 203 0.0 4.3 0.00 0.00 0.00 62 1016.4
20240614013018 53 174 0.9 4.3 0.00 0.00 0.00 63 1016.4
20240614011517 52 173 0.9 4.3 0.00 0.00 0.00 63 1016.2
20240614010017 52 176 0.0 6.1 0.00 0.00 0.00 63 1016.3
20240614004516 52 226 0.0 4.3 0.00 0.00 0.00 62 1016.2
20240614003016 53 220 0.9 3.5 0.00 0.00 0.00 62 1016.2
20240614001520 53 225 0.9 3.5 0.00 0.00 0.00 61 1016.2
20240613233042 50 198 0.9 5.2 0.00 0.00 0.00 65 1016.3
20240613231541 49 175 0.9 7.0 0.00 0.00 0.00 64 1016.4
20240613230042 49 174 0.9 3.5 0.00 0.00 0.00 65 1016.4
20240613224537 49 145 0.0 3.5 0.00 0.00 0.00 65 1016.3
20240613223038 49 157 1.7 5.2 0.00 0.00 0.00 65 1016.2
20240613221534 49 142 0.9 4.3 0.00 0.00 0.00 66 1016.2
20240613220031 49 173 1.7 3.5 0.00 0.00 0.00 66 1016.1
20240613214528 49 155 0.9 3.5 0.00 0.00 0.00 67 1016.1
20240613213026 50 164 0.9 6.1 0.00 0.00 0.00 67 1016.1
20240613211526 50 161 0.9 4.3 0.00 0.00 0.00 67 1016.0
20240613210030 50 152 0.9 3.5 0.00 0.00 0.00 67 1015.9
20240613204523 51 163 1.7 6.1 0.00 0.00 0.00 67 1016.1
20240613203022 51 156 2.6 8.7 0.00 0.00 0.00 67 1016.0
20240613201519 51 194 2.6 6.1 0.00 0.00 0.00 67 1016.0
20240613200019 51 184 2.6 7.8 0.00 0.00 0.00 67 1016.1
20240613194517 52 187 2.6 7.8 0.00 0.00 0.00 66 1016.2
20240613193014 52 171 3.5 7.8 0.00 0.00 0.00 66 1016.1
20240613191513 52 198 2.6 7.8 0.00 0.00 0.00 65 1016.0
20240613190010 53 205 3.5 7.8 0.00 0.00 0.00 64 1016.0
20240613184508 54 200 3.5 11.3 0.00 0.00 0.00 64 1015.9
20240613183006 54 193 4.3 13.9 0.00 0.00 0.00 63 1015.8
20240613181506 54 193 2.6 12.2 0.00 0.00 0.00 63 1015.7
20240613180004 54 208 4.3 16.5 0.00 0.00 0.00 63 1015.6
20240613174501 54 201 4.3 13.9 0.00 0.00 0.00 62 1015.6
20240613173000 54 182 4.3 14.8 0.00 0.00 0.00 61 1015.6
20240613171633 55 207 5.2 13.9 0.00 0.00 0.00 60 1015.5
20240613170059 55 223 7.8 16.5 0.00 0.00 0.00 59 1015.4
20240613164558 55 200 7.0 13.0 0.00 0.00 0.00 60 1015.5
20240613163058 55 167 4.3 17.4 0.00 0.00 0.00 59 1015.5
20240613161607 55 215 7.8 19.1 0.00 0.00 0.00 59 1015.6
20240613160058 56 213 5.2 17.4 0.00 0.00 0.00 58 1015.7
20240613154554 56 165 5.2 13.0 0.00 0.00 0.00 56 1015.8
20240613153112 56 217 5.2 19.1 0.00 0.00 0.00 58 1015.7
20240613151554 56 223 6.1 13.9 0.00 0.00 0.00 56 1015.8
20240613150050 56 196 7.0 19.1 0.00 0.00 0.00 57 1015.8
20240613144557 56 212 7.8 20.0 0.00 0.00 0.00 55 1015.8
20240613143054 57 190 5.2 12.2 0.00 0.00 0.00 54 1015.8
20240613141547 57 226 4.3 17.4 0.00 0.00 0.00 53 1015.8
20240613140047 57 188 5.2 16.5 0.00 0.00 0.00 52 1015.9
20240613134604 57 212 6.1 13.9 0.00 0.00 0.00 52 1015.9
20240613133054 57 237 7.8 17.4 0.00 0.00 0.00 51 1015.8